Simultaneous Nadir Overpasses (SNOs) Predictions

Prediction of SNOs between METOP-B and TERRA Satellite Orbit:

Table of predicted SNOs for the next 14.0 days since TLE Epoch: 2/25/2023
Index Date (METOP-B) Time (METOP-B) Lat,Lon (METOP-B) SZA (METOP-B ) Date (TERRA) Time (TERRA) Lat,Lon (TERRA) SZA (TERRA ) Distance(km) Time Diff (sec)
1 02/26/2023 12:34:07 80.93, 26.37 90.92 02/26/2023 12:34:43 80.92, 26.29 90.92 1.61 36
2 02/26/2023 13:24:45 -80.98,-165.15 88.96 02/26/2023 13:24:04 -80.98,-165.27 88.99 2.09 41
3 03/01/2023 04:45:44 80.95, 143.92 89.98 03/01/2023 04:46:02 80.95, 143.74 89.97 3.16 18
4 03/01/2023 05:36:23 -80.99, -47.95 89.94 03/01/2023 05:35:24 -80.99, -48.12 89.98 3.14 59
5 03/03/2023 20:57:23 80.95, -98.95 88.98 03/03/2023 20:57:22 80.95, -99.02 88.97 1.26 1
6 03/06/2023 12:18:24 -80.91,-150.04 92.14 03/06/2023 12:19:22 -80.90,-150.20 92.14 3.14 58
7 03/06/2023 13:09:02 80.95, 18.11 87.96 03/06/2023 13:08:42 80.94, 17.98 87.93 2.37 20
8 03/09/2023 04:30:02 -80.93, -32.67 93.13 03/09/2023 04:30:40 -80.93, -32.69 93.11 0.60 38



Historial Predications of SNOs between METOP-B and TERRA
